Location: Austin
(30.3000°N, 97.7500°W)
Time: 05:37:23
(UTC-06:00)

Helios 1A Rocket - Pass Details

Date: 03 March 2026
Orbit: 421 x 431 km, 98.3° (Epoch: 5 March)

Event Time Altitude Azimuth Distance (km) Brightness Sun altitude
Rises 19:33:26 0° 17° (NNE) 2,386 5.9 -14.2°
Reaches altitude 10° 19:35:28 10° 21° (NNE) 1,519 4.9 -14.6°
Maximum altitude 19:38:40 58° 101° (E) 501 2.2 -15.3°
Drops below altitude 10° 19:41:52 10° 182° (S) 1,515 5.1 -16.0°
Sets 19:43:53 0° 186° (S) 2,378 6.1 -16.4°
